UZB41 UZTT-UZSS

Flight info

Callsign UZB41
Flight time 0h 35m
Altitude 24000
Route N0450F240 KUFIM M168 NETAT Y92 TITAR
Aircraft A320/M-VGDW/C

Departure

Time 2026-04-21 17:04
Airport Tashkent International Airport (UZTT)

Arrival

Time 2026-04-21 17:39
Airport Samarkand International Airport (UZSS)
Time Latitude Longitude Altitude Speed Heading
2026-04-21 16:48 41.25158 69.26343 1382 ft 0 kts 180°
2026-04-21 16:56 41.25162 69.26343 1379 ft 3 kts 181°
2026-04-21 16:56 41.25187 69.26347 1380 ft 4 kts 207°
2026-04-21 16:57 41.25201 69.26367 1381 ft 2 kts 269°
2026-04-21 16:57 41.25201 69.26370 1381 ft 0 kts 270°
2026-04-21 17:00 41.25201 69.26364 1382 ft 2 kts 270°
2026-04-21 17:00 41.25202 69.26326 1382 ft 5 kts 270°
2026-04-21 17:01 41.25202 69.26275 1382 ft 6 kts 271°
2026-04-21 17:01 41.25236 69.26246 1380 ft 8 kts 356°
2026-04-21 17:01 41.25272 69.26194 1381 ft 3 kts 290°
2026-04-21 17:01 41.25275 69.26183 1378 ft 3 kts 290°
2026-04-21 17:02 41.25286 69.26148 1380 ft 5 kts 291°
2026-04-21 17:02 41.25302 69.26094 1381 ft 8 kts 293°
2026-04-21 17:02 41.25349 69.26043 1378 ft 11 kts 343°
2026-04-21 17:02 41.25423 69.26082 1378 ft 13 kts 50°
2026-04-21 17:03 41.25436 69.26124 1378 ft 0 kts 79°
2026-04-21 17:03 41.25437 69.26129 1378 ft 1 kts 79°
2026-04-21 17:03 41.25439 69.26141 1379 ft 2 kts 79°
2026-04-21 17:03 41.25451 69.26257 1381 ft 42 kts 82°
2026-04-21 17:04 41.25529 69.26967 1384 ft 109 kts 81°
2026-04-21 17:04 41.25661 69.28220 1389 ft 161 kts 90°
2026-04-21 17:04 41.25800 69.29683 2049 ft 159 kts 84°
2026-04-21 17:04 41.25961 69.31130 2730 ft 153 kts 79°
2026-04-21 17:05 41.26123 69.32536 3120 ft 167 kts 81°
2026-04-21 17:05 41.26268 69.34160 3354 ft 193 kts 94°
2026-04-21 17:05 41.25717 69.35874 3572 ft 217 kts 139°
2026-04-21 17:05 41.24318 69.36729 3941 ft 236 kts 178°
2026-04-21 17:06 41.22673 69.36190 4400 ft 258 kts 209°
2026-04-21 17:06 41.21173 69.34786 5163 ft 268 kts 219°
2026-04-21 17:06 41.19775 69.33111 6087 ft 273 kts 223°
2026-04-21 17:06 41.18392 69.31374 7000 ft 275 kts 221°
2026-04-21 17:07 41.17111 69.29469 7903 ft 278 kts 230°
2026-04-21 17:07 41.15903 69.27443 8857 ft 279 kts 229°
2026-04-21 17:07 41.14707 69.25394 9759 ft 284 kts 230°
2026-04-21 17:07 41.13489 69.23291 10390 ft 296 kts 230°
2026-04-21 17:08 41.12181 69.21040 10702 ft 319 kts 230°
2026-04-21 17:08 41.10806 69.18680 11383 ft 325 kts 229°
2026-04-21 17:08 41.09432 69.16322 12335 ft 323 kts 230°
2026-04-21 17:08 41.08061 69.13972 13244 ft 322 kts 230°
2026-04-21 17:09 41.05299 69.09258 14775 ft 326 kts 231°
2026-04-21 17:09 41.03895 69.06873 15458 ft 330 kts 231°
2026-04-21 17:09 41.02476 69.04465 16129 ft 333 kts 231°
2026-04-21 17:10 41.01042 69.02035 16776 ft 337 kts 232°
2026-04-21 17:10 40.99592 68.99577 17427 ft 341 kts 232°
2026-04-21 17:10 40.98147 68.97126 18069 ft 344 kts 233°
2026-04-21 17:10 40.96665 68.94614 18646 ft 348 kts 233°
2026-04-21 17:11 40.95168 68.92080 19242 ft 350 kts 233°
2026-04-21 17:11 40.93655 68.89525 19831 ft 353 kts 233°
2026-04-21 17:11 40.92135 68.86961 20430 ft 355 kts 233°
2026-04-21 17:11 40.90602 68.84375 21004 ft 358 kts 233°
2026-04-21 17:12 40.89062 68.81774 21581 ft 361 kts 233°
2026-04-21 17:12 40.87509 68.79154 22173 ft 363 kts 233°
2026-04-21 17:12 40.85951 68.76530 22787 ft 365 kts 233°
2026-04-21 17:12 40.84378 68.73884 23385 ft 367 kts 233°
2026-04-21 17:13 40.82814 68.71258 23778 ft 369 kts 233°
2026-04-21 17:13 40.81227 68.68594 23890 ft 368 kts 233°
2026-04-21 17:13 40.79640 68.66028 23896 ft 355 kts 231°
2026-04-21 17:13 40.78034 68.63575 23909 ft 351 kts 230°
2026-04-21 17:14 40.76414 68.61178 23916 ft 350 kts 229°
2026-04-21 17:14 40.74783 68.58787 23918 ft 350 kts 229°
2026-04-21 17:14 40.73146 68.56415 23917 ft 350 kts 228°
2026-04-21 17:14 40.71473 68.54080 23918 ft 350 kts 227°
2026-04-21 17:15 40.69785 68.51769 23915 ft 350 kts 228°
2026-04-21 17:15 40.68095 68.49465 23915 ft 350 kts 227°
2026-04-21 17:15 40.66406 68.47164 23915 ft 350 kts 227°
2026-04-21 17:15 40.64718 68.44857 23912 ft 350 kts 228°
2026-04-21 17:16 40.63034 68.42544 23911 ft 350 kts 228°
2026-04-21 17:16 40.61352 68.40223 23911 ft 349 kts 228°
2026-04-21 17:16 40.59654 68.37923 23908 ft 349 kts 227°
2026-04-21 17:16 40.57940 68.35657 23909 ft 350 kts 227°
2026-04-21 17:17 40.56212 68.33407 23910 ft 350 kts 226°
2026-04-21 17:17 40.54481 68.31160 23905 ft 350 kts 226°
2026-04-21 17:17 40.52771 68.28940 23903 ft 350 kts 226°
2026-04-21 17:17 40.51042 68.26690 23893 ft 350 kts 227°
2026-04-21 17:18 40.49312 68.24437 23889 ft 350 kts 227°
2026-04-21 17:18 40.47585 68.22181 23887 ft 350 kts 227°
2026-04-21 17:18 40.45857 68.19920 23889 ft 350 kts 227°
2026-04-21 17:18 40.44128 68.17663 23884 ft 351 kts 227°
2026-04-21 17:19 40.42396 68.15404 23884 ft 351 kts 227°
2026-04-21 17:19 40.40664 68.13145 23882 ft 351 kts 227°
2026-04-21 17:19 40.38928 68.10888 23886 ft 351 kts 227°
2026-04-21 17:19 40.37186 68.08630 23887 ft 352 kts 227°
2026-04-21 17:20 40.35447 68.06378 23885 ft 351 kts 227°
2026-04-21 17:20 40.33709 68.04126 23889 ft 351 kts 227°
2026-04-21 17:20 40.31971 68.01867 23890 ft 351 kts 227°
2026-04-21 17:20 40.30242 67.99611 23891 ft 351 kts 227°
2026-04-21 17:21 40.28510 67.97342 23892 ft 351 kts 227°
2026-04-21 17:21 40.26781 67.95077 23893 ft 351 kts 227°
2026-04-21 17:21 40.25052 67.92818 23893 ft 351 kts 227°
2026-04-21 17:21 40.23321 67.90561 23880 ft 351 kts 227°
2026-04-21 17:22 40.22170 67.89062 23884 ft 352 kts 227°
2026-04-21 17:22 40.19872 67.86074 23884 ft 352 kts 227°
2026-04-21 17:22 40.18132 67.83821 23885 ft 352 kts 227°
2026-04-21 17:22 40.16403 67.81585 23724 ft 346 kts 227°
2026-04-21 17:23 40.14709 67.79398 23498 ft 340 kts 227°
2026-04-21 17:23 40.13067 67.77199 23239 ft 336 kts 233°
2026-04-21 17:23 40.11702 67.74739 22976 ft 333 kts 237°
2026-04-21 17:23 40.10394 67.72256 22659 ft 329 kts 237°
2026-04-21 17:24 40.09098 67.69804 22201 ft 326 kts 237°
2026-04-21 17:24 40.07813 67.67375 21735 ft 324 kts 237°
2026-04-21 17:24 40.06534 67.64962 21265 ft 322 kts 236°
2026-04-21 17:24 40.05258 67.62564 20805 ft 321 kts 236°
2026-04-21 17:25 40.03986 67.60176 20339 ft 320 kts 236°
2026-04-21 17:25 40.02720 67.57800 19876 ft 319 kts 236°
2026-04-21 17:25 40.01455 67.55424 19418 ft 318 kts 236°
2026-04-21 17:25 40.00196 67.53058 18957 ft 317 kts 236°
2026-04-21 17:26 39.98940 67.50704 18503 ft 316 kts 236°
2026-04-21 17:26 39.97685 67.48351 18018 ft 316 kts 236°
2026-04-21 17:26 39.96432 67.46003 17540 ft 314 kts 236°
2026-04-21 17:26 39.95190 67.43676 17089 ft 312 kts 236°
2026-04-21 17:27 39.93953 67.41361 16650 ft 310 kts 236°
2026-04-21 17:27 39.92723 67.39061 16187 ft 308 kts 237°
2026-04-21 17:27 39.91500 67.36776 15770 ft 307 kts 237°
2026-04-21 17:27 39.90271 67.34485 15339 ft 308 kts 237°
2026-04-21 17:28 39.89038 67.32194 14908 ft 309 kts 237°
2026-04-21 17:28 39.87808 67.29909 14481 ft 308 kts 236°
2026-04-21 17:28 39.86580 67.27627 14084 ft 305 kts 237°
2026-04-21 17:28 39.85370 67.25373 13705 ft 303 kts 237°
2026-04-21 17:29 39.84165 67.23126 13252 ft 301 kts 237°
2026-04-21 17:29 39.82975 67.20900 12820 ft 299 kts 237°
2026-04-21 17:29 39.81794 67.18684 12405 ft 297 kts 237°
2026-04-21 17:29 39.80634 67.16508 11988 ft 295 kts 237°
2026-04-21 17:30 39.79470 67.14321 11573 ft 293 kts 236°
2026-04-21 17:30 39.78313 67.12148 11186 ft 291 kts 236°
2026-04-21 17:30 39.77163 67.09995 10768 ft 289 kts 237°
2026-04-21 17:30 39.76251 67.07681 10341 ft 288 kts 251°
2026-04-21 17:31 39.75906 67.05140 10039 ft 284 kts 267°
2026-04-21 17:31 39.76050 67.02627 9904 ft 274 kts 273°
2026-04-21 17:31 39.76246 67.00184 9572 ft 270 kts 272°
2026-04-21 17:31 39.76436 66.97749 9128 ft 271 kts 272°
2026-04-21 17:32 39.76561 66.96109 8849 ft 270 kts 272°
2026-04-21 17:32 39.76806 66.92894 8285 ft 270 kts 272°
2026-04-21 17:32 39.76994 66.90470 7804 ft 268 kts 272°
2026-04-21 17:32 39.77178 66.88120 7538 ft 251 kts 272°
2026-04-21 17:33 39.77349 66.85939 7231 ft 239 kts 271°
2026-04-21 17:33 39.77514 66.83775 6619 ft 241 kts 271°
2026-04-21 17:33 39.77676 66.81595 5995 ft 244 kts 271°
2026-04-21 17:33 39.77837 66.79393 5417 ft 243 kts 271°
2026-04-21 17:34 39.77646 66.77277 5172 ft 231 kts 245°
2026-04-21 17:34 39.76753 66.75636 5016 ft 218 kts 218°
2026-04-21 17:34 39.75430 66.74748 4721 ft 217 kts 193°
2026-04-21 17:34 39.73897 66.74762 4191 ft 227 kts 163°
2026-04-21 17:35 39.72572 66.75787 3989 ft 220 kts 134°
2026-04-21 17:35 39.71824 66.77397 3984 ft 205 kts 108°
2026-04-21 17:35 39.71610 66.79181 4024 ft 197 kts 97°
2026-04-21 17:35 39.71480 66.80940 4001 ft 194 kts 98°
2026-04-21 17:36 39.71352 66.82661 3995 ft 185 kts 98°
2026-04-21 17:36 39.71236 66.84219 3956 ft 162 kts 97°
2026-04-21 17:36 39.71131 66.85608 3823 ft 151 kts 98°
2026-04-21 17:36 39.71029 66.86943 3652 ft 145 kts 97°
2026-04-21 17:37 39.70962 66.87820 3531 ft 143 kts 97°
2026-04-21 17:37 39.70865 66.89088 3357 ft 142 kts 97°
2026-04-21 17:37 39.70768 66.90359 3162 ft 141 kts 97°
2026-04-21 17:37 39.70638 66.92054 2910 ft 141 kts 97°
2026-04-21 17:38 39.70572 66.92897 2745 ft 142 kts 97°
2026-04-21 17:38 39.70473 66.94186 2536 ft 145 kts 98°
2026-04-21 17:38 39.70373 66.95498 2375 ft 147 kts 97°
2026-04-21 17:38 39.70276 66.96812 2221 ft 142 kts 96°
2026-04-21 17:39 39.70186 66.97952 2209 ft 107 kts 96°
2026-04-21 17:39 39.70128 66.98706 2208 ft 66 kts 96°
2026-04-21 17:39 39.70101 66.99077 2208 ft 22 kts 95°
2026-04-21 17:39 39.70035 66.99144 2209 ft 13 kts 183°
2026-04-21 17:40 39.69987 66.99139 2208 ft 5 kts 185°
2026-04-21 17:40 39.69955 66.99135 2208 ft 5 kts 185°
2026-04-21 17:40 39.69923 66.99130 2208 ft 4 kts 185°
2026-04-21 17:40 39.69898 66.99127 2208 ft 3 kts 185°
2026-04-21 17:41 39.69880 66.99125 2208 ft 2 kts 185°
2026-04-21 17:41 39.69869 66.99124 2208 ft 1 kts 185°
2026-04-21 17:41 39.69861 66.99123 2208 ft 3 kts 184°
2026-04-21 17:41 39.69827 66.99133 2208 ft 7 kts 163°
2026-04-21 17:42 39.69768 66.99131 2208 ft 5 kts 185°
2026-04-21 17:42 39.69751 66.99129 2206 ft 2 kts 186°
2026-04-21 17:42 39.69743 66.99128 2207 ft 1 kts 186°
2026-04-21 17:42 39.69740 66.99127 2208 ft 2 kts 186°
2026-04-21 17:43 39.69733 66.99126 2208 ft 1 kts 186°
2026-04-21 17:43 39.69729 66.99126 2208 ft 0 kts 186°